Printer-friendly version
Follow the MPC on Twitter Follow the MPC on Facebook The MPC blog
Minor Planet Center

MPEC 2010-F34 : 2010 FR

The following Minor Planet Electronic Circular may be linked-to from your own Web pages, but must not otherwise be redistributed electronically.

A form allowing access to any MPEC is at the bottom of this page.


Read MPEC 2010-F33 Read MPEC 2010-F35


M.P.E.C. 2010-F34                                Issued 2010 Mar. 18, 21:35 UT

     The Minor Planet Electronic Circulars contain information on unusual
         minor planets and routine data on comets.  They are published
   on behalf of Commission 20 of the International Astronomical Union by the
          Minor Planet Center, Smithsonian Astrophysical Observatory,
                          Cambridge, MA 02138, U.S.A.

             Prepared using the Tamkin Foundation Computer Network

                              MPC@CFA.HARVARD.EDU
       URL http://www.minorplanetcenter.org/iau/mpc.html  ISSN 1523-6714

                                    2010 FR

Observations:
     K10F00R* C2010 03 18.36381 14 39 38.66 +34 09 58.7          18.1 V EF034703
     K10F00R  C2010 03 18.36957 14 39 33.98 +34 10 21.2          17.9 V EF034703
     K10F00R  C2010 03 18.37536 14 39 29.30 +34 10 43.5          17.7 V EF034703
     K10F00R  C2010 03 18.38115 14 39 24.62 +34 11 06.0          17.7 V EF034703
     K10F00R  C2010 03 18.40120 14 39 07.90 +34 12 20.0          17.0 R EF034H01
     K10F00R  C2010 03 18.40719514 39 00.47 +34 12 29.0          17.4 V EF034H21
     K10F00R  C2010 03 18.40906114 38 58.98 +34 12 35.7          17.5 V EF034H21
     K10F00R  C2010 03 18.41092714 38 57.49 +34 12 42.5          17.4 V EF034H21
     K10F00R  C2010 03 18.41200 14 38 59.22 +34 13 00.2          17.0 R EF034H01
     K10F00R  C2010 03 18.41279914 38 55.99 +34 12 49.3          17.5 V EF034H21
     K10F00R  C2010 03 18.41448514 38 54.64 +34 12 55.5          17.4 V EF034H21
     K10F00R  C2010 03 18.42366 14 38 49.84 +34 13 43.5          17.1 R EF034H01
     K10F00R  C2010 03 18.43445 14 38 41.69 +34 14 27.4          17.0 R EF034854
     K10F00R  C2010 03 18.43637 14 38 40.14 +34 14 34.4          17.1 R EF034854
     K10F00R  C2010 03 18.43733 14 38 39.34 +34 14 38.3          17.1 R EF034854
     K10F00R  C2010 03 18.51779 14 37 35.21 +34 19 24.4          17.4 R EF034926
     K10F00R  C2010 03 18.51909 14 37 34.19 +34 19 28.9          17.4 R EF034926
     K10F00R  C2010 03 18.52038 14 37 33.17 +34 19 33.4          17.4 R EF034926
     K10F00R  C2010 03 18.52604 14 37 28.74 +34 19 50.1          17.5 V EF034703
     K10F00R  C2010 03 18.52650 14 37 28.34 +34 19 52.0          17.6 V EF034703
     K10F00R  C2010 03 18.52697 14 37 28.09 +34 19 53.8          16.9 V EF034703
     K10F00R  C2010 03 18.52743 14 37 27.62 +34 19 54.9          17.2 V EF034703
     K10F00R  C2010 03 18.83735614 33 53.90 +34 36 45.4          17.7 V EF034B03
     K10F00R  C2010 03 18.84325714 33 49.68 +34 37 06.3          18.4 V EF034B03
     K10F00R  C2010 03 18.84915614 33 45.44 +34 37 27.9          18.2 V EF034B03
     K10F00R  C2010 03 18.85506414 33 41.18 +34 37 49.2          17.7 V EF034B03

Observer details:
703 Catalina Sky Survey.  Observer A. Boattini.  Measurers J. D. Ahern,
    E. C. Beshore, A. Boattini, G. J. Garradd, A. R. Gibbs, A. D. Grauer,
    R. E. Hill, R. A. Kowalski, S. M. Larson, R. H. McNaught.  0.68-m Schmidt
    + CCD.
854 Sabino Canyon Observatory, Tucson.  Observer J. E. McGaha.  0.36-m f/10.0
    Schmidt-Cassegrain + CCD.
926 Tenagra II Observatory.  Observers P. R. Holvorcem, M. Schwartz.  Measurer
    P. R. Holvorcem.  0.81-m f/7 Ritchey-Chretien + CCD.
B03 Alter Satzberg, Vienna.  Observer M. Pietschnig.  0.35-m f/5.8
    Schmidt-Cassegrain + CCD.
H01 Magdalena Ridge Observatory, Socorro.  Observers W. H. Ryan, E. V. Ryan.
    Measurer W. H. Ryan.  2.4-m f/8.9 reflector + CCD.
H21 Astronomical Research Observatory, Westfield.  Observer R. Holmes.
    Measurer S. Foglia.

Orbital elements:
2010 FR                                             PHA, Earth MOID = 0.0097 AU
Epoch 2010 Jan. 4.0 TT = JDT 2455200.5                  MPC
M 357.34211              (2000.0)            P               Q
n   0.82898955     Peri.  271.94127     +0.18200020     -0.98183535
a   1.1222855      Node   167.18895     +0.97062031     +0.17065754
e   0.3602251      Incl.   13.99430     +0.15739170     +0.08291770
P   1.19           H   21.4           G   0.15           U   7
Residuals in seconds of arc
100318 703  0.1+  0.0     100318 H21  0.1+  0.1-    100318 703  0.1-  0.3-
100318 703  0.2-  0.0     100318 H21  0.0   0.0     100318 703  0.6-  0.1+
100318 703  0.3-  0.2-    100318 H01  0.2+  0.2-    100318 703  0.9+  0.3+
100318 703  0.3-  0.1-    100318 854  0.3+  0.2+    100318 703  0.5-  0.2-
100318 H01  0.2-  0.1+    100318 854  0.2+  0.2+    100318 B03  0.1+  0.1+
100318 H21  0.0   0.1-    100318 854  0.1-  0.5+    100318 B03  0.1+  0.3-
100318 H21  0.0   0.2-    100318 926  0.0   0.1+    100318 B03  0.0   0.0
100318 H21  0.1+  0.1-    100318 926  0.1+  0.1+    100318 B03  0.3-  0.0
100318 H01  0.1+  0.2-    100318 926  0.0   0.2+

Ephemeris:
2010 FR                  a,e,i = 1.12, 0.36, 14                  q = 0.7180
Date    TT    R. A. (2000) Decl.     Delta      r     Elong.  Phase     V
2010 03 15    15 33.97   +28 29.8    0.0520   1.020   118.3    59.2    17.1
2010 03 20    14 21.03   +35 33.6    0.0809   1.051   131.4    45.3    17.8
2010 03 25    13 42.79   +37 28.2    0.113    1.081   135.9    39.9    18.4
2010 03 30    13 20.18   +37 47.9    0.148    1.111   137.2    37.6    19.0
2010 04 04    13 05.56   +37 27.3    0.183    1.140   136.9    36.8    19.5
2010 04 09    12 55.65   +36 44.4    0.220    1.169   135.7    36.7    19.9
2010 04 14    12 48.92   +35 46.7    0.257    1.196   134.0    37.1    20.3
2010 04 19    12 44.54   +34 38.3    0.296    1.223   132.0    37.6    20.7
2010 04 24    12 42.02   +33 22.3    0.337    1.248   129.8    38.2    21.0
2010 04 29    12 40.98   +32 01.0    0.378    1.273   127.5    38.9    21.4
2010 05 04    12 41.15   +30 35.9    0.420    1.296   125.1    39.6    21.6
2010 05 09    12 42.33   +29 07.8    0.464    1.318   122.6    40.2    21.9
2010 05 14    12 44.39   +27 37.5    0.508    1.339   120.1    40.8    22.2

Sonia Keys                   (C) Copyright 2010 MPC           M.P.E.C. 2010-F34

Read MPEC 2010-F33 Read MPEC 2010-F35


MPEC number:

Enter an MPEC number in one of the following forms:

  • 1997-B01 (the full form)
  • J97B01 (the packed version of the full form)
  • B01 (the abbreviated form)

Valid HTML 4.01!